EN

Hourly Weather Laguna Azul

Today, 29 July, Thursday

Time Temperature Precipitation Wind Pressure Humidity
00:00 +3°C° 0 mm 7 mps 747 mmHg 74%
01:00 +3°C° 0 mm 7 mps 746 mmHg 74%
02:00 +3°C° 0 mm 7 mps 745 mmHg 73%
03:00 +3°C° 0 mm 7 mps 744 mmHg 72%
04:00 +2°C° 0 mm 8 mps 743 mmHg 72%
05:00 +3°C° 0 mm 7 mps 742 mmHg 71%
06:00 +3°C° 0 mm 7 mps 742 mmHg 70%
07:00 +3°C° 0 mm 7 mps 741 mmHg 68%
08:00 +4°C° 0 mm 6 mps 741 mmHg 63%
09:00 +5°C° 0 mm 6 mps 740 mmHg 58%
10:00 +7°C° 0 mm 5 mps 740 mmHg 53%
11:00 +8°C° 0 mm 5 mps 739 mmHg 50%
12:00 +10°C° 0 mm 4 mps 739 mmHg 47%
13:00 +11°C° 0 mm 4 mps 738 mmHg 43%
14:00 +10°C° 0 mm 4 mps 738 mmHg 45%
15:00 +10°C° 0 mm 4 mps 738 mmHg 46%
16:00 +8°C° 0 mm 4 mps 738 mmHg 47%
17:00 +7°C° 0 mm 4 mps 738 mmHg 49%
18:00 +6°C° 0 mm 4 mps 738 mmHg 52%
19:00 +6°C° 0 mm 4 mps 739 mmHg 54%
20:00 +5°C° 0 mm 4 mps 738 mmHg 57%
21:00 +5°C° 0 mm 4 mps 738 mmHg 59%
22:00 +4°C° 0 mm 4 mps 738 mmHg 62%
23:00 +5°C° 0 mm 5 mps 738 mmHg 57%

Tomorrow, 30 July, Friday

Time Temperature Precipitation Wind Pressure Humidity
00:00 +5°C° 0 mm 5 mps 738 mmHg 52%
01:00 +5°C° 0 mm 5 mps 738 mmHg 46%
02:00 +4°C° 0 mm 6 mps 738 mmHg 49%
03:00 +4°C° 0 mm 6 mps 738 mmHg 52%
04:00 +4°C° 0 mm 7 mps 738 mmHg 55%
05:00 +3°C° 0 mm 6 mps 739 mmHg 58%
06:00 +2°C° 0 mm 6 mps 740 mmHg 61%
07:00 +1°C° 0 mm 5 mps 741 mmHg 64%
08:00 +2°C° 0 mm 5 mps 742 mmHg 57%
09:00 +4°C° 0 mm 4 mps 743 mmHg 50%
10:00 +5°C° 0 mm 4 mps 744 mmHg 42%
11:00 +5°C° 0 mm 4 mps 745 mmHg 42%
12:00 +6°C° 0 mm 4 mps 746 mmHg 42%
13:00 +7°C° 0 mm 5 mps 746 mmHg 41%
14:00 +6°C° 0 mm 4 mps 747 mmHg 42%
15:00 +5°C° 0 mm 3 mps 748 mmHg 44%
16:00 +5°C° 0 mm 3 mps 748 mmHg 45%
17:00 +4°C° 0 mm 3 mps 749 mmHg 47%
18:00 +3°C° 0 mm 3 mps 750 mmHg 48%
19:00 +2°C° 0 mm 3 mps 751 mmHg 50%
20:00 +2°C° 0 mm 3 mps 752 mmHg 51%
21:00 +1°C° 0 mm 3 mps 752 mmHg 53%
22:00 +1°C° 0 mm 3 mps 753 mmHg 54%
23:00 +1°C° 0 mm 3 mps 754 mmHg 55%

Day after tomorrow, 31 July, Saturday

Time Temperature Precipitation Wind Pressure Humidity
00:00 0°C° 0 mm 3 mps 754 mmHg 56%
01:00 0°C° 0 mm 3 mps 755 mmHg 57%
02:00 -1°C° 0 mm 4 mps 755 mmHg 56%
03:00 -1°C° 0 mm 4 mps 755 mmHg 56%
04:00 -1°C° 0 mm 4 mps 755 mmHg 56%
05:00 -1°C° 0 mm 4 mps 755 mmHg 57%
06:00 -1°C° 0 mm 5 mps 755 mmHg 57%
07:00 -1°C° 0 mm 5 mps 755 mmHg 58%
08:00 -1°C° 0 mm 6 mps 754 mmHg 56%
09:00 +2°C° 0 mm 7 mps 754 mmHg 53%
10:00 +2°C° 0 mm 8 mps 754 mmHg 51%
11:00 +3°C° 0 mm 9 mps 753 mmHg 48%
12:00 +5°C° 0 mm 10 mps 752 mmHg 46%
13:00 +6°C° 0 mm 11 mps 751 mmHg 44%
14:00 +4°C° 0 mm 11 mps 750 mmHg 45%
15:00 +4°C° 0 mm 11 mps 750 mmHg 46%
16:00 +3°C° 0 mm 12 mps 749 mmHg 47%
17:00 +3°C° 0 mm 12 mps 748 mmHg 47%
18:00 +3°C° 0 mm 12 mps 748 mmHg 47%
19:00 +3°C° 0 mm 12 mps 747 mmHg 47%
20:00 +3°C° 0 mm 11 mps 747 mmHg 47%
21:00 +3°C° 0 mm 10 mps 747 mmHg 47%
22:00 +3°C° 0 mm 9 mps 746 mmHg 47%
23:00 +3°C° 0 mm 9 mps 746 mmHg 45%

1 August, Sunday

Time Temperature Precipitation Wind Pressure Humidity
00:00 +5°C° 0 mm 8 mps 746 mmHg 42%
01:00 +5°C° 0 mm 7 mps 746 mmHg 40%
02:00 +5°C° 0 mm 7 mps 747 mmHg 40%
03:00 +5°C° 0 mm 7 mps 747 mmHg 41%
04:00 +5°C° 0 mm 6 mps 747 mmHg 41%
05:00 +5°C° 0 mm 6 mps 747 mmHg 44%
06:00 +5°C° 0 mm 6 mps 747 mmHg 47%
07:00 +6°C° 0 mm 5 mps 747 mmHg 50%
08:00 +7°C° 0 mm 5 mps 747 mmHg 50%
09:00 +8°C° 0 mm 5 mps 746 mmHg 50%
10:00 +9°C° 0 mm 5 mps 746 mmHg 50%
11:00 +10°C° 0 mm 5 mps 745 mmHg 48%
12:00 +12°C° 0 mm 5 mps 744 mmHg 46%
13:00 +13°C° 0 mm 5 mps 744 mmHg 43%
14:00 +11°C° 0 mm 6 mps 743 mmHg 48%
15:00 +11°C° 0 mm 6 mps 743 mmHg 52%
16:00 +10°C° 0 mm 6 mps 743 mmHg 57%
17:00 +10°C° 0 mm 6 mps 743 mmHg 60%
18:00 +9°C° 0 mm 6 mps 743 mmHg 64%
19:00 +8°C° 0 mm 7 mps 744 mmHg 68%
20:00 +8°C° 0 mm 7 mps 744 mmHg 68%
21:00 +8°C° 0 mm 7 mps 744 mmHg 68%
22:00 +6°C° 0 mm 7 mps 745 mmHg 68%
23:00 +7°C° 0 mm 6 mps 745 mmHg 69%

2 August, Monday

Time Temperature Precipitation Wind Pressure Humidity
00:00 +7°C° 0 mm 5 mps 746 mmHg 70%
01:00 +6°C° 0 mm 5 mps 746 mmHg 71%
02:00 +6°C° 0 mm 5 mps 746 mmHg 70%
03:00 +6°C° 0 mm 4 mps 746 mmHg 70%
04:00 +6°C° 0 mm 4 mps 746 mmHg 69%
05:00 +6°C° 0 mm 4 mps 746 mmHg 69%
06:00 +6°C° 0 mm 4 mps 746 mmHg 69%
07:00 +7°C° 0 mm 3 mps 747 mmHg 68%
08:00 +8°C° 0 mm 5 mps 747 mmHg 62%
09:00 +9°C° 0 mm 6 mps 747 mmHg 56%
10:00 +10°C° 0 mm 7 mps 748 mmHg 50%
11:00 +11°C° 0 mm 8 mps 748 mmHg 44%
12:00 +12°C° 0 mm 8 mps 748 mmHg 39%
13:00 +12°C° 0 mm 8 mps 748 mmHg 34%
14:00 +11°C° 0 mm 6 mps 748 mmHg 37%
15:00 +10°C° 0 mm 5 mps 748 mmHg 40%
16:00 +10°C° 0 mm 4 mps 749 mmHg 43%
17:00 +9°C° 0 mm 3 mps 748 mmHg 49%
18:00 +8°C° 0 mm 3 mps 748 mmHg 54%
19:00 +7°C° 0 mm 2 mps 748 mmHg 59%
20:00 +7°C° 0 mm 3 mps 748 mmHg 61%
21:00 +7°C° 0 mm 3 mps 747 mmHg 64%
22:00 +6°C° 0 mm 4 mps 747 mmHg 66%
23:00 +6°C° 0 mm 4 mps 747 mmHg 67%

3 August, Tuesday

Time Temperature Precipitation Wind Pressure Humidity
00:00 +6°C° 0 mm 4 mps 746 mmHg 68%
01:00 +6°C° 0 mm 4 mps 746 mmHg 69%
02:00 +6°C° 0 mm 4 mps 745 mmHg 70%
03:00 +6°C° 0 mm 4 mps 745 mmHg 71%
04:00 +5°C° 0 mm 4 mps 745 mmHg 71%
05:00 +7°C° 0 mm 3 mps 745 mmHg 72%
06:00 +7°C° 0 mm 3 mps 745 mmHg 73%
07:00 +7°C° 0 mm 3 mps 745 mmHg 73%
08:00 +8°C° 0 mm 3 mps 745 mmHg 69%
09:00 +9°C° 0 mm 3 mps 746 mmHg 64%
10:00 +10°C° 0 mm 3 mps 746 mmHg 59%
11:00 +10°C° 0 mm 3 mps 746 mmHg 55%
12:00 +12°C° 0 mm 2 mps 746 mmHg 52%
13:00 +12°C° 0 mm 2 mps 746 mmHg 49%
14:00 +10°C° 0 mm 2 mps 746 mmHg 51%
15:00 +10°C° 0 mm 3 mps 745 mmHg 54%
16:00 +8°C° 0 mm 4 mps 745 mmHg 57%
17:00 +7°C° 0 mm 4 mps 745 mmHg 59%
18:00 +7°C° 0 mm 5 mps 744 mmHg 61%
19:00 +6°C° 0 mm 5 mps 744 mmHg 64%
20:00 +6°C° 0 mm 5 mps 743 mmHg 70%
21:00 +6°C° 0 mm 4 mps 742 mmHg 75%
22:00 +7°C° 0 mm 4 mps 741 mmHg 81%
23:00 +7°C° 0 mm 4 mps 741 mmHg 80%
Show more